Time,TemperatureF,DewpointF,PressureIn,WindDirection,WindDirectionDegrees,WindSpeedMPH,WindSpeedGustMPH,Humidity,HourlyPrecipIn,Conditions,Clouds,dailyrainin,SoftwareType,DateUTC
2013-03-08 00:02:00,43.6,34.5,30.27,SE,132,0.0,9.0,70,0.00,,---,0.00,VWS V13.01,2013-03-08 06:02:00,
2013-03-08 00:07:00,43.5,34.4,30.27,East,96,5.0,5.0,70,0.00,,---,0.00,VWS V13.01,2013-03-08 06:07:00,
2013-03-08 00:12:00,43.4,34.3,30.27,East,95,2.0,7.0,70,0.00,,---,0.00,VWS V13.01,2013-03-08 06:12:00,
2013-03-08 00:17:00,43.3,34.2,30.27,ENE,77,4.0,7.0,70,0.00,,---,0.00,VWS V13.01,2013-03-08 06:17:00,
2013-03-08 00:22:00,43.2,34.5,30.27,SSE,149,2.0,7.0,71,0.00,,---,0.00,VWS V13.01,2013-03-08 06:22:00,
2013-03-08 00:27:00,43.1,34.3,30.27,SE,126,5.0,10.0,71,0.00,,---,0.00,VWS V13.01,2013-03-08 06:27:00,
2013-03-08 00:32:00,43.0,34.2,30.27,ESE,113,2.0,10.0,71,0.00,,---,0.00,VWS V13.01,2013-03-08 06:32:00,
2013-03-08 00:37:00,43.0,34.2,30.27,ESE,107,4.0,6.0,71,0.00,,---,0.00,VWS V13.01,2013-03-08 06:37:00,
2013-03-08 00:42:00,42.9,34.2,30.27,ESE,117,4.0,7.0,71,0.00,,---,0.00,VWS V13.01,2013-03-08 06:42:00,
2013-03-08 00:48:00,42.8,34.4,30.28,East,95,0.0,7.0,72,0.00,,---,0.00,VWS V13.01,2013-03-08 06:48:00,
2013-03-08 00:53:00,42.8,34.4,30.28,East,94,3.0,10.0,72,0.00,,---,0.00,VWS V13.01,2013-03-08 06:53:00,
2013-03-08 00:58:00,42.7,34.3,30.27,East,84,4.0,10.0,72,0.00,,---,0.00,VWS V13.01,2013-03-08 06:58:00,
2013-03-08 01:03:00,42.6,34.2,30.27,ESE,112,1.0,10.0,72,0.00,,---,0.00,VWS V13.01,2013-03-08 07:03:00,
2013-03-08 01:08:00,42.5,34.1,30.27,ESE,106,5.0,7.0,72,0.00,,---,0.00,VWS V13.01,2013-03-08 07:08:00,
2013-03-08 01:13:00,42.5,34.1,30.27,East,92,2.0,7.0,72,0.00,,---,0.00,VWS V13.01,2013-03-08 07:13:00,
2013-03-08 01:18:00,42.4,34.0,30.27,ESE,107,2.0,7.0,72,0.00,,---,0.00,VWS V13.01,2013-03-08 07:18:00,
2013-03-08 01:23:00,42.4,34.0,30.27,ESE,109,3.0,9.0,72,0.00,,---,0.00,VWS V13.01,2013-03-08 07:23:00,
2013-03-08 01:28:00,42.4,34.0,30.27,SE,136,6.0,9.0,72,0.00,,---,0.00,VWS V13.01,2013-03-08 07:28:00,
2013-03-08 01:33:00,42.4,34.0,30.28,East,96,3.0,10.0,72,0.00,,---,0.00,VWS V13.01,2013-03-08 07:33:00,
2013-03-08 01:38:00,42.5,34.1,30.27,East,80,5.0,9.0,72,0.00,,---,0.00,VWS V13.01,2013-03-08 07:38:00,
2013-03-08 01:43:00,42.5,34.1,30.27,ENE,65,1.0,9.0,72,0.00,,---,0.00,VWS V13.01,2013-03-08 07:43:00,
2013-03-08 01:48:00,42.5,34.1,30.28,ESE,113,0.0,9.0,72,0.00,,---,0.00,VWS V13.01,2013-03-08 07:48:00,
2013-03-08 01:53:00,42.5,34.1,30.28,East,95,4.0,9.0,72,0.00,,---,0.00,VWS V13.01,2013-03-08 07:53:00,
2013-03-08 01:58:00,42.6,34.2,30.28,East,91,2.0,9.0,72,0.00,,---,0.00,VWS V13.01,2013-03-08 07:58:00,
2013-03-08 02:03:00,42.4,34.0,30.28,East,81,2.0,9.0,72,0.00,,---,0.00,VWS V13.01,2013-03-08 08:03:00,
2013-03-08 02:08:00,42.1,34.1,30.28,East,96,0.0,5.0,73,0.00,,---,0.00,VWS V13.01,2013-03-08 08:08:00,
2013-03-08 02:13:00,41.9,34.2,30.28,East,83,1.0,7.0,74,0.00,,---,0.00,VWS V13.01,2013-03-08 08:13:00,
2013-03-08 02:18:00,41.7,34.0,30.28,East,94,2.0,7.0,74,0.00,,---,0.00,VWS V13.01,2013-03-08 08:18:00,
2013-03-08 02:23:00,41.6,33.9,30.28,East,91,3.0,7.0,74,0.00,,---,0.00,VWS V13.01,2013-03-08 08:23:00,
2013-03-08 02:28:00,41.6,33.9,30.27,East,98,4.0,9.0,74,0.00,,---,0.00,VWS V13.01,2013-03-08 08:28:00,
2013-03-08 02:33:00,41.6,33.9,30.27,ESE,103,5.0,9.0,74,0.00,,---,0.00,VWS V13.01,2013-03-08 08:33:00,
2013-03-08 02:38:00,41.4,33.8,30.26,East,92,3.0,5.0,74,0.00,,---,0.00,VWS V13.01,2013-03-08 08:38:00,
2013-03-08 02:43:00,41.1,33.5,30.26,ENE,59,3.0,5.0,74,0.00,,---,0.00,VWS V13.01,2013-03-08 08:43:00,
2013-03-08 02:48:00,40.8,33.5,30.27,ENE,61,2.0,6.0,75,0.00,,---,0.00,VWS V13.01,2013-03-08 08:48:00,
2013-03-08 02:53:00,40.6,33.6,30.27,ENE,60,1.0,6.0,76,0.00,,---,0.00,VWS V13.01,2013-03-08 08:53:00,
2013-03-08 02:58:00,40.5,33.5,30.28,ENE,60,0.0,6.0,76,0.00,,---,0.00,VWS V13.01,2013-03-08 08:58:00,
2013-03-08 03:03:00,40.4,33.5,30.29,ENE,61,0.0,6.0,76,0.00,,---,0.00,VWS V13.01,2013-03-08 09:03:00,
2013-03-08 03:08:00,40.2,33.2,30.29,ENE,61,1.0,2.0,76,0.00,,---,0.00,VWS V13.01,2013-03-08 09:08:00,
2013-03-08 03:13:00,40.2,33.6,30.28,ENE,78,0.0,3.0,77,0.00,,---,0.00,VWS V13.01,2013-03-08 09:13:00,
2013-03-08 03:19:00,40.1,33.5,30.28,East,88,2.0,5.0,77,0.00,,---,0.00,VWS V13.01,2013-03-08 09:19:00,
2013-03-08 03:24:00,40.1,33.5,30.28,East,88,2.0,5.0,77,0.00,,---,0.00,VWS V13.01,2013-03-08 09:24:00,
2013-03-08 03:29:00,40.1,33.5,30.28,East,89,2.0,5.0,77,0.00,,---,0.00,VWS V13.01,2013-03-08 09:29:00,
2013-03-08 03:34:00,40.1,33.5,30.28,ENE,61,3.0,7.0,77,0.00,,---,0.00,VWS V13.01,2013-03-08 09:34:00,
2013-03-08 03:39:00,40.1,33.5,30.28,ENE,72,2.0,7.0,77,0.00,,---,0.00,VWS V13.01,2013-03-08 09:39:00,
2013-03-08 03:44:00,40.2,33.6,30.28,ESE,105,5.0,7.0,77,0.00,,---,0.00,VWS V13.01,2013-03-08 09:44:00,
2013-03-08 03:49:00,40.2,33.6,30.28,ESE,102,2.0,9.0,77,0.00,,---,0.00,VWS V13.01,2013-03-08 09:49:00,
2013-03-08 03:54:00,40.2,33.2,30.28,East,101,3.0,9.0,76,0.00,,---,0.00,VWS V13.01,2013-03-08 09:54:00,
2013-03-08 03:59:00,40.1,33.2,30.28,ESE,116,1.0,9.0,76,0.00,,---,0.00,VWS V13.01,2013-03-08 09:59:00,
2013-03-08 04:04:00,40.0,33.1,30.29,ESE,115,4.0,9.0,76,0.00,,---,0.00,VWS V13.01,2013-03-08 10:04:00,
2013-03-08 04:09:00,40.0,33.1,30.29,East,96,4.0,4.0,76,0.00,,---,0.00,VWS V13.01,2013-03-08 10:09:00,
2013-03-08 04:14:00,39.9,33.0,30.30,ESE,115,2.0,5.0,76,0.00,,---,0.00,VWS V13.01,2013-03-08 10:14:00,
2013-03-08 04:19:00,39.8,32.9,30.30,ESE,115,0.0,5.0,76,0.00,,---,0.00,VWS V13.01,2013-03-08 10:19:00,
2013-03-08 04:24:00,39.7,33.1,30.30,ENE,76,1.0,5.0,77,0.00,,---,0.00,VWS V13.01,2013-03-08 10:24:00,
2013-03-08 04:29:00,39.6,33.0,30.30,SE,145,2.0,5.0,77,0.00,,---,0.00,VWS V13.01,2013-03-08 10:29:00,
2013-03-08 04:34:00,39.6,33.0,30.31,SE,145,1.0,5.0,77,0.00,,---,0.00,VWS V13.01,2013-03-08 10:34:00,
2013-03-08 04:39:00,39.5,32.9,30.31,SE,145,0.0,3.0,77,0.00,,---,0.00,VWS V13.01,2013-03-08 10:39:00,
2013-03-08 04:44:00,39.5,32.9,30.31,SE,145,3.0,4.0,77,0.00,,---,0.00,VWS V13.01,2013-03-08 10:44:00,
2013-03-08 04:49:00,39.5,32.9,30.31,East,96,0.0,4.0,77,0.00,,---,0.00,VWS V13.01,2013-03-08 10:49:00,
2013-03-08 04:54:00,39.5,32.9,30.31,South,172,2.0,4.0,77,0.00,,---,0.00,VWS V13.01,2013-03-08 10:54:00,
2013-03-08 04:59:00,39.4,32.5,30.31,ESE,109,0.0,6.0,76,0.00,,---,0.00,VWS V13.01,2013-03-08 10:59:00,
2013-03-08 05:04:00,39.4,32.5,30.31,ESE,109,1.0,6.0,76,0.00,,---,0.00,VWS V13.01,2013-03-08 11:04:00,
2013-03-08 05:09:00,39.3,32.4,30.31,ESE,109,4.0,4.0,76,0.00,,---,0.00,VWS V13.01,2013-03-08 11:09:00,
2013-03-08 05:14:00,39.3,32.4,30.31,ESE,109,3.0,5.0,76,0.00,,---,0.00,VWS V13.01,2013-03-08 11:14:00,
2013-03-08 05:19:00,39.2,32.3,30.31,ESE,109,1.0,5.0,76,0.00,,---,0.00,VWS V13.01,2013-03-08 11:19:00,
2013-03-08 05:25:00,39.2,32.3,30.32,ESE,109,0.0,5.0,76,0.00,,---,0.00,VWS V13.01,2013-03-08 11:25:00,
2013-03-08 05:30:00,39.1,32.2,30.32,ESE,109,0.0,5.0,76,0.00,,---,0.00,VWS V13.01,2013-03-08 11:30:00,
2013-03-08 05:34:00,39.1,32.2,30.32,ESE,109,4.0,5.0,76,0.00,,---,0.00,VWS V13.01,2013-03-08 11:34:00,
2013-03-08 05:39:00,39.0,32.1,30.32,ESE,109,0.0,3.0,76,0.00,,---,0.00,VWS V13.01,2013-03-08 11:39:00,
2013-03-08 05:45:00,38.9,32.0,30.33,ESE,109,3.0,6.0,76,0.00,,---,0.00,VWS V13.01,2013-03-08 11:45:00,
2013-03-08 05:50:00,38.9,32.3,30.33,ESE,109,2.0,6.0,77,0.00,,---,0.00,VWS V13.01,2013-03-08 11:50:00,
2013-03-08 05:55:00,38.9,32.3,30.33,ESE,109,2.0,6.0,77,0.00,,---,0.00,VWS V13.01,2013-03-08 11:55:00,
2013-03-08 06:00:00,38.9,32.3,30.32,ESE,109,3.0,6.0,77,0.00,,---,0.00,VWS V13.01,2013-03-08 12:00:00,
2013-03-08 06:05:00,38.8,32.2,30.33,ESE,107,4.0,6.0,77,0.00,,---,0.00,VWS V13.01,2013-03-08 12:05:00,
2013-03-08 06:10:00,38.8,32.2,30.33,ESE,107,4.0,5.0,77,0.00,,---,0.00,VWS V13.01,2013-03-08 12:10:00,
2013-03-08 06:15:00,38.8,32.2,30.34,ESE,108,4.0,6.0,77,0.00,,---,0.00,VWS V13.01,2013-03-08 12:15:00,
2013-03-08 06:20:00,38.8,32.2,30.34,ESE,108,4.0,6.0,77,0.00,,---,0.00,VWS V13.01,2013-03-08 12:20:00,
2013-03-08 06:25:00,38.7,32.1,30.34,ESE,107,0.0,6.0,77,0.00,,---,0.00,VWS V13.01,2013-03-08 12:25:00,
2013-03-08 06:30:00,38.7,32.1,30.35,ESE,108,2.0,6.0,77,0.00,,---,0.00,VWS V13.01,2013-03-08 12:30:00,
2013-03-08 06:35:00,38.7,32.1,30.34,ESE,108,4.0,6.0,77,0.00,,---,0.00,VWS V13.01,2013-03-08 12:35:00,
2013-03-08 06:40:00,38.7,32.1,30.35,ESE,108,0.0,4.0,77,0.00,,---,0.00,VWS V13.01,2013-03-08 12:40:00,
2013-03-08 06:45:00,38.7,32.1,30.34,ESE,110,2.0,6.0,77,0.00,,---,0.00,VWS V13.01,2013-03-08 12:45:00,
2013-03-08 06:50:00,38.6,32.0,30.34,SSE,157,2.0,9.0,77,0.00,,---,0.00,VWS V13.01,2013-03-08 12:50:00,
2013-03-08 06:55:00,38.6,32.0,30.34,SE,136,2.0,9.0,77,0.00,,---,0.00,VWS V13.01,2013-03-08 12:55:00,
2013-03-08 07:00:00,38.6,32.0,30.33,ESE,111,2.0,9.0,77,0.00,,---,0.00,VWS V13.01,2013-03-08 13:00:00,
2013-03-08 07:05:00,38.6,32.0,30.34,ESE,105,2.0,9.0,77,0.00,,---,0.00,VWS V13.01,2013-03-08 13:05:00,
2013-03-08 07:10:00,38.6,32.0,30.33,ESE,111,4.0,9.0,77,0.00,,---,0.00,VWS V13.01,2013-03-08 13:10:00,
2013-03-08 07:16:00,38.6,32.0,30.33,East,98,0.0,9.0,77,0.00,,---,0.00,VWS V13.01,2013-03-08 13:16:00,
2013-03-08 07:21:00,38.6,32.0,30.33,East,96,0.0,9.0,77,0.00,,---,0.00,VWS V13.01,2013-03-08 13:21:00,
2013-03-08 07:26:00,38.6,32.0,30.34,East,96,6.0,9.0,77,0.00,,---,0.00,VWS V13.01,2013-03-08 13:26:00,
2013-03-08 07:31:00,38.7,32.1,30.34,ESE,109,3.0,9.0,77,0.00,,---,0.00,VWS V13.01,2013-03-08 13:31:00,
2013-03-08 07:36:00,38.8,32.2,30.34,East,101,2.0,2.0,77,0.00,,---,0.00,VWS V13.01,2013-03-08 13:36:00,
2013-03-08 07:41:00,39.0,32.4,30.33,ESE,111,8.0,9.0,77,0.00,,---,0.00,VWS V13.01,2013-03-08 13:41:00,
2013-03-08 07:46:00,39.2,32.6,30.34,SSE,158,7.0,10.0,77,0.00,,---,0.00,VWS V13.01,2013-03-08 13:46:00,
2013-03-08 07:51:00,39.4,32.8,30.34,East,95,3.0,10.0,77,0.00,,---,0.00,VWS V13.01,2013-03-08 13:51:00,
2013-03-08 07:56:00,39.6,32.7,30.34,SSE,150,3.0,10.0,76,0.00,,---,0.00,VWS V13.01,2013-03-08 13:56:00,
2013-03-08 08:01:00,39.8,32.9,30.33,ESE,123,6.0,10.0,76,0.00,,---,0.00,VWS V13.01,2013-03-08 14:01:00,
2013-03-08 08:06:00,40.2,32.9,30.34,SSE,149,6.0,7.0,75,0.00,,---,0.00,VWS V13.01,2013-03-08 14:06:00,
2013-03-08 08:11:00,40.6,33.3,30.34,ESE,123,7.0,10.0,75,0.00,,---,0.00,VWS V13.01,2013-03-08 14:11:00,
2013-03-08 08:16:00,40.9,33.3,30.34,SE,126,0.0,10.0,74,0.00,,---,0.00,VWS V13.01,2013-03-08 14:16:00,
2013-03-08 08:21:00,41.2,33.2,30.34,East,95,4.0,11.0,73,0.00,,---,0.00,VWS V13.01,2013-03-08 14:21:00,
2013-03-08 08:26:00,41.4,33.1,30.34,ESE,116,6.0,12.0,72,0.00,,---,0.00,VWS V13.01,2013-03-08 14:26:00,
2013-03-08 08:31:00,41.8,33.5,30.35,SE,145,3.0,12.0,72,0.00,,---,0.00,VWS V13.01,2013-03-08 14:31:00,
2013-03-08 08:36:00,42.1,33.4,30.34,South,180,5.0,5.0,71,0.00,,---,0.00,VWS V13.01,2013-03-08 14:36:00,
2013-03-08 08:41:00,42.4,33.7,30.35,SSE,161,0.0,9.0,71,0.00,,---,0.00,VWS V13.01,2013-03-08 14:41:00,
2013-03-08 08:46:00,42.6,33.5,30.35,SSE,148,2.0,9.0,70,0.00,,---,0.00,VWS V13.01,2013-03-08 14:46:00,
2013-03-08 08:51:00,43.1,33.6,30.34,ESE,119,4.0,11.0,69,0.00,,---,0.00,VWS V13.01,2013-03-08 14:51:00,
2013-03-08 08:56:00,43.6,34.1,30.34,SSE,166,0.0,11.0,69,0.00,,---,0.00,VWS V13.01,2013-03-08 14:56:00,
2013-03-08 09:01:00,44.0,34.5,30.35,ENE,71,2.0,11.0,69,0.00,,---,0.00,VWS V13.01,2013-03-08 15:01:00,
2013-03-08 09:06:00,44.6,34.3,30.35,South,181,1.0,5.0,67,0.00,,---,0.00,VWS V13.01,2013-03-08 15:06:00,
2013-03-08 09:11:00,45.0,34.7,30.35,South,171,5.0,7.0,67,0.00,,---,0.00,VWS V13.01,2013-03-08 15:11:00,
2013-03-08 09:16:00,45.3,34.6,30.35,SSE,161,0.0,7.0,66,0.00,,---,0.00,VWS V13.01,2013-03-08 15:16:00,
2013-03-08 09:21:00,45.8,35.1,30.35,SSW,198,4.0,8.0,66,0.00,,---,0.00,VWS V13.01,2013-03-08 15:21:00,
2013-03-08 09:27:00,46.5,35.0,30.35,SSE,166,2.0,8.0,64,0.00,,---,0.00,VWS V13.01,2013-03-08 15:27:00,
2013-03-08 09:32:00,47.4,36.2,30.35,SE,128,0.0,8.0,65,0.00,,---,0.00,VWS V13.01,2013-03-08 15:32:00,
2013-03-08 09:37:00,47.5,35.1,30.35,SSE,161,4.0,6.0,62,0.00,,---,0.00,VWS V13.01,2013-03-08 15:37:00,
2013-03-08 09:42:00,47.4,35.5,30.34,East,79,3.0,6.0,63,0.00,,---,0.00,VWS V13.01,2013-03-08 15:42:00,
2013-03-08 09:47:00,47.4,35.5,30.34,East,97,5.0,10.0,63,0.00,,---,0.00,VWS V13.01,2013-03-08 15:47:00,
2013-03-08 09:52:00,47.8,35.8,30.34,ESE,113,2.0,10.0,63,0.00,,---,0.00,VWS V13.01,2013-03-08 15:52:00,
2013-03-08 09:57:00,48.6,36.2,30.34,South,182,4.0,10.0,62,0.00,,---,0.00,VWS V13.01,2013-03-08 15:57:00,
2013-03-08 10:02:00,49.1,35.8,30.33,NE,47,4.0,10.0,60,0.00,,---,0.00,VWS V13.01,2013-03-08 16:02:00,
2013-03-08 10:07:00,49.6,36.3,30.33,SE,129,3.0,6.0,60,0.00,,---,0.00,VWS V13.01,2013-03-08 16:07:00,
2013-03-08 10:12:00,50.1,36.8,30.33,South,173,10.0,10.0,60,0.00,,---,0.00,VWS V13.01,2013-03-08 16:12:00,
2013-03-08 10:17:00,50.2,35.6,30.33,ESE,108,3.0,11.0,57,0.00,,---,0.00,VWS V13.01,2013-03-08 16:17:00,
2013-03-08 10:23:00,49.9,35.3,30.33,South,178,6.0,15.0,57,0.00,,---,0.00,VWS V13.01,2013-03-08 16:23:00,
2013-03-08 10:28:00,50.1,35.9,30.33,SSE,156,3.0,15.0,58,0.00,,---,0.00,VWS V13.01,2013-03-08 16:28:00,
2013-03-08 10:33:00,50.6,35.9,30.33,SE,142,2.0,15.0,57,0.00,,---,0.00,VWS V13.01,2013-03-08 16:33:00,
2013-03-08 10:38:00,51.0,36.3,30.33,SSE,149,3.0,6.0,57,0.00,,---,0.00,VWS V13.01,2013-03-08 16:38:00,
2013-03-08 10:43:00,51.7,37.0,30.32,SSW,211,4.0,9.0,57,0.00,,---,0.00,VWS V13.01,2013-03-08 16:43:00,
2013-03-08 10:48:00,52.3,37.1,30.32,SE,134,0.0,9.0,56,0.00,,---,0.00,VWS V13.01,2013-03-08 16:48:00,
2013-03-08 10:53:00,52.3,36.2,30.32,East,94,3.0,11.0,54,0.00,,---,0.00,VWS V13.01,2013-03-08 16:53:00,
2013-03-08 10:58:00,52.5,37.3,30.32,East,99,9.0,11.0,56,0.00,,---,0.00,VWS V13.01,2013-03-08 16:58:00,
2013-03-08 11:03:00,52.8,37.5,30.32,ESE,116,0.0,13.0,56,0.00,,---,0.00,VWS V13.01,2013-03-08 17:03:00,
2013-03-08 11:08:00,53.2,37.0,30.32,SSE,148,0.0,9.0,54,0.00,,---,0.00,VWS V13.01,2013-03-08 17:08:00,
2013-03-08 11:13:00,53.9,37.7,30.31,South,173,2.0,11.0,54,0.00,,---,0.00,VWS V13.01,2013-03-08 17:13:00,
2013-03-08 11:18:00,53.6,37.4,30.31,SW,216,7.0,11.0,54,0.00,,---,0.00,VWS V13.01,2013-03-08 17:18:00,
2013-03-08 11:24:00,54.5,39.1,30.32,SE,137,0.0,11.0,56,0.00,,---,0.00,VWS V13.01,2013-03-08 17:24:00,
2013-03-08 11:29:00,54.9,37.6,30.31,SSW,198,7.0,11.0,52,0.00,,---,0.00,VWS V13.01,2013-03-08 17:29:00,
2013-03-08 11:34:00,54.7,38.9,30.31,South,170,0.0,11.0,55,0.00,,---,0.00,VWS V13.01,2013-03-08 17:34:00,
2013-03-08 11:39:00,55.5,37.7,30.31,ESE,106,5.0,10.0,51,0.00,,---,0.00,VWS V13.01,2013-03-08 17:39:00,
2013-03-08 11:44:00,55.8,39.4,30.31,ESE,119,2.0,10.0,54,0.00,,---,0.00,VWS V13.01,2013-03-08 17:44:00,
2013-03-08 11:49:00,55.9,38.5,30.31,ESE,105,1.0,10.0,52,0.00,,---,0.00,VWS V13.01,2013-03-08 17:49:00,
2013-03-08 11:54:00,56.1,38.2,30.31,SE,136,0.0,10.0,51,0.00,,---,0.00,VWS V13.01,2013-03-08 17:54:00,
2013-03-08 11:59:00,56.4,38.5,30.31,SE,134,1.0,10.0,51,0.00,,---,0.00,VWS V13.01,2013-03-08 17:59:00,
2013-03-08 12:04:00,57.2,39.8,30.31,SE,138,0.0,10.0,52,0.00,,---,0.00,VWS V13.01,2013-03-08 18:04:00,
2013-03-08 12:09:00,56.8,37.9,30.30,SSE,153,5.0,5.0,49,0.00,,---,0.00,VWS V13.01,2013-03-08 18:09:00,
2013-03-08 12:14:00,57.2,38.8,30.30,SSW,197,4.0,6.0,50,0.00,,---,0.00,VWS V13.01,2013-03-08 18:14:00,
2013-03-08 12:19:00,57.3,38.3,30.30,WSW,248,0.0,8.0,49,0.00,,---,0.00,VWS V13.01,2013-03-08 18:19:00,
2013-03-08 12:24:00,57.5,39.0,30.30,SW,232,0.0,8.0,50,0.00,,---,0.00,VWS V13.01,2013-03-08 18:24:00,
2013-03-08 12:29:00,57.8,39.3,30.30,SE,140,6.0,9.0,50,0.00,,---,0.00,VWS V13.01,2013-03-08 18:29:00,
2013-03-08 12:34:00,58.5,39.4,30.30,ENE,64,0.0,9.0,49,0.00,,---,0.00,VWS V13.01,2013-03-08 18:34:00,
2013-03-08 12:39:00,59.0,40.9,30.29,SSW,200,0.0,4.0,51,0.00,,---,0.00,VWS V13.01,2013-03-08 18:39:00,
2013-03-08 12:44:00,59.0,39.9,30.29,South,179,0.0,6.0,49,0.00,,---,0.00,VWS V13.01,2013-03-08 18:44:00,
2013-03-08 12:49:00,59.0,39.4,30.29,South,176,5.0,12.0,48,0.00,,---,0.00,VWS V13.01,2013-03-08 18:49:00,
2013-03-08 12:54:00,59.8,41.1,30.29,South,182,0.0,12.0,50,0.00,,---,0.00,VWS V13.01,2013-03-08 18:54:00,
2013-03-08 12:59:00,60.4,41.2,30.28,East,94,5.0,12.0,49,0.00,,---,0.00,VWS V13.01,2013-03-08 18:59:00,
2013-03-08 13:04:00,59.7,40.0,30.28,SSE,152,0.0,12.0,48,0.00,,---,0.00,VWS V13.01,2013-03-08 19:04:00,
2013-03-08 13:10:00,59.9,39.6,30.27,South,169,4.0,7.0,47,0.00,,---,0.00,VWS V13.01,2013-03-08 19:10:00,
2013-03-08 13:14:00,60.5,40.2,30.26,SW,226,0.0,7.0,47,0.00,,---,0.00,VWS V13.01,2013-03-08 19:14:00,
2013-03-08 13:19:00,61.5,41.1,30.26,ESE,117,3.0,11.0,47,0.00,,---,0.00,VWS V13.01,2013-03-08 19:19:00,
2013-03-08 13:25:00,61.0,40.1,30.24,East,97,3.0,12.0,46,0.00,,---,0.00,VWS V13.01,2013-03-08 19:25:00,
2013-03-08 13:30:00,61.3,40.4,30.23,NE,48,2.0,12.0,46,0.00,,---,0.00,VWS V13.01,2013-03-08 19:30:00,
2013-03-08 13:35:00,61.1,39.6,30.24,SE,125,3.0,12.0,45,0.00,,---,0.00,VWS V13.01,2013-03-08 19:35:00,
2013-03-08 13:40:00,60.0,39.7,30.24,ENE,74,2.0,7.0,47,0.00,,---,0.00,VWS V13.01,2013-03-08 19:40:00,
2013-03-08 13:45:00,59.9,39.6,30.23,SE,133,1.0,9.0,47,0.00,,---,0.00,VWS V13.01,2013-03-08 19:45:00,
2013-03-08 13:50:00,60.0,39.7,30.23,South,180,2.0,9.0,47,0.00,,---,0.00,VWS V13.01,2013-03-08 19:50:00,
2013-03-08 13:55:00,59.6,39.4,30.23,East,100,2.0,11.0,47,0.00,,---,0.00,VWS V13.01,2013-03-08 19:55:00,
2013-03-08 14:00:00,59.4,39.2,30.23,ENE,78,1.0,11.0,47,0.00,,---,0.00,VWS V13.01,2013-03-08 20:00:00,
2013-03-08 14:05:00,59.1,39.5,30.23,ESE,121,5.0,11.0,48,0.00,,---,0.00,VWS V13.01,2013-03-08 20:05:00,
2013-03-08 14:10:00,59.3,40.2,30.22,ESE,106,5.0,8.0,49,0.00,,---,0.00,VWS V13.01,2013-03-08 20:10:00,
2013-03-08 14:15:00,59.6,41.0,30.22,NE,42,0.0,8.0,50,0.00,,---,0.00,VWS V13.01,2013-03-08 20:15:00,
2013-03-08 14:20:00,59.4,39.2,30.21,ESE,106,2.0,10.0,47,0.00,,---,0.00,VWS V13.01,2013-03-08 20:20:00,
2013-03-08 14:25:00,59.3,39.6,30.21,SSE,155,4.0,10.0,48,0.00,,---,0.00,VWS V13.01,2013-03-08 20:25:00,
2013-03-08 14:30:00,59.2,39.0,30.20,ESE,102,2.0,14.0,47,0.00,,---,0.00,VWS V13.01,2013-03-08 20:30:00,
2013-03-08 14:35:00,59.7,40.0,30.20,NE,53,1.0,14.0,48,0.00,,---,0.00,VWS V13.01,2013-03-08 20:35:00,
2013-03-08 14:40:00,59.7,40.0,30.20,ESE,111,4.0,10.0,48,0.00,,---,0.00,VWS V13.01,2013-03-08 20:40:00,
2013-03-08 14:45:00,59.7,39.5,30.20,East,101,3.0,11.0,47,0.00,,---,0.00,VWS V13.01,2013-03-08 20:45:00,
2013-03-08 14:50:00,59.3,39.1,30.19,ESE,111,0.0,11.0,47,0.00,,---,0.00,VWS V13.01,2013-03-08 20:50:00,
2013-03-08 14:55:00,59.1,38.9,30.19,SSE,154,2.0,11.0,47,0.00,,---,0.00,VWS V13.01,2013-03-08 20:55:00,
2013-03-08 15:00:00,59.3,38.0,30.19,SE,128,7.0,11.0,45,0.00,,---,0.00,VWS V13.01,2013-03-08 21:00:00,
2013-03-08 15:05:00,59.0,38.3,30.19,SSE,168,5.0,13.0,46,0.00,,---,0.00,VWS V13.01,2013-03-08 21:05:00,
2013-03-08 15:10:00,59.0,38.3,30.18,East,98,4.0,7.0,46,0.00,,---,0.00,VWS V13.01,2013-03-08 21:10:00,
2013-03-08 15:15:00,59.0,38.3,30.18,East,95,5.0,11.0,46,0.00,,---,0.00,VWS V13.01,2013-03-08 21:15:00,
2013-03-08 15:20:00,59.0,38.3,30.18,ESE,123,5.0,13.0,46,0.00,,---,0.00,VWS V13.01,2013-03-08 21:20:00,
2013-03-08 15:26:00,59.0,38.3,30.18,ESE,103,5.0,13.0,46,0.00,,---,0.00,VWS V13.01,2013-03-08 21:26:00,
2013-03-08 15:31:00,59.1,38.4,30.18,East,93,0.0,13.0,46,0.00,,---,0.00,VWS V13.01,2013-03-08 21:31:00,
2013-03-08 15:36:00,59.3,38.5,30.18,SSE,161,1.0,6.0,46,0.00,,---,0.00,VWS V13.01,2013-03-08 21:36:00,
2013-03-08 15:41:00,59.0,37.7,30.18,East,80,2.0,12.0,45,0.00,,---,0.00,VWS V13.01,2013-03-08 21:41:00,
2013-03-08 15:46:00,59.0,38.3,30.18,ESE,110,4.0,12.0,46,0.00,,---,0.00,VWS V13.01,2013-03-08 21:46:00,
2013-03-08 15:51:00,59.0,37.7,30.18,ESE,109,12.0,12.0,45,0.00,,---,0.00,VWS V13.01,2013-03-08 21:51:00,
2013-03-08 15:56:00,59.0,38.8,30.18,East,87,3.0,12.0,47,0.00,,---,0.00,VWS V13.01,2013-03-08 21:56:00,
2013-03-08 16:01:00,58.8,37.5,30.18,East,88,7.0,12.0,45,0.00,,---,0.00,VWS V13.01,2013-03-08 22:01:00,
2013-03-08 16:06:00,58.8,37.5,30.17,South,183,5.0,10.0,45,0.00,,---,0.00,VWS V13.01,2013-03-08 22:06:00,
2013-03-08 16:11:00,58.9,37.6,30.17,SSE,156,0.0,15.0,45,0.00,,---,0.00,VWS V13.01,2013-03-08 22:11:00,
2013-03-08 16:16:00,59.0,37.7,30.17,ENE,68,1.0,15.0,45,0.00,,---,0.00,VWS V13.01,2013-03-08 22:16:00,
2013-03-08 16:21:00,59.0,38.3,30.17,East,85,0.0,15.0,46,0.00,,---,0.00,VWS V13.01,2013-03-08 22:21:00,
2013-03-08 16:26:00,59.0,37.7,30.16,SSE,149,9.0,15.0,45,0.00,,---,0.00,VWS V13.01,2013-03-08 22:26:00,
2013-03-08 16:32:00,58.7,37.4,30.16,NE,42,4.0,15.0,45,0.00,,---,0.00,VWS V13.01,2013-03-08 22:32:00,
2013-03-08 16:37:00,58.6,37.3,30.16,East,80,5.0,12.0,45,0.00,,---,0.00,VWS V13.01,2013-03-08 22:37:00,
2013-03-08 16:42:00,58.4,37.2,30.16,ESE,119,5.0,13.0,45,0.00,,---,0.00,VWS V13.01,2013-03-08 22:42:00,
2013-03-08 16:47:00,58.3,37.1,30.16,SE,132,2.0,13.0,45,0.00,,---,0.00,VWS V13.01,2013-03-08 22:47:00,
2013-03-08 16:52:00,58.2,37.0,30.16,East,101,7.0,13.0,45,0.00,,---,0.00,VWS V13.01,2013-03-08 22:52:00,
2013-03-08 16:57:00,58.1,37.5,30.17,SSE,165,0.0,13.0,46,0.00,,---,0.00,VWS V13.01,2013-03-08 22:57:00,
2013-03-08 17:02:00,58.0,37.9,30.17,NE,52,2.0,13.0,47,0.00,,---,0.00,VWS V13.01,2013-03-08 23:02:00,
2013-03-08 17:07:00,57.8,37.7,30.17,SE,134,0.0,3.0,47,0.00,,---,0.00,VWS V13.01,2013-03-08 23:07:00,
2013-03-08 17:12:00,57.6,37.5,30.17,SSE,156,4.0,8.0,47,0.00,,---,0.00,VWS V13.01,2013-03-08 23:12:00,
2013-03-08 17:17:00,57.5,37.5,30.17,East,92,1.0,11.0,47,0.00,,---,0.00,VWS V13.01,2013-03-08 23:17:00,
2013-03-08 17:22:00,57.3,37.8,30.17,SE,138,4.0,11.0,48,0.00,,---,0.00,VWS V13.01,2013-03-08 23:22:00,
2013-03-08 17:27:00,57.2,37.7,30.18,ESE,119,6.0,11.0,48,0.00,,---,0.00,VWS V13.01,2013-03-08 23:27:00,
2013-03-08 17:32:00,57.0,38.0,30.17,SE,130,0.0,11.0,49,0.00,,---,0.00,VWS V13.01,2013-03-08 23:32:00,
2013-03-08 17:37:00,56.8,37.9,30.17,East,97,2.0,6.0,49,0.00,,---,0.00,VWS V13.01,2013-03-08 23:37:00,
2013-03-08 17:42:00,56.7,37.8,30.17,ENE,78,7.0,11.0,49,0.00,,---,0.00,VWS V13.01,2013-03-08 23:42:00,
2013-03-08 17:48:00,56.6,37.7,30.17,SE,128,5.0,12.0,49,0.00,,---,0.00,VWS V13.01,2013-03-08 23:48:00,
2013-03-08 17:53:00,56.4,37.5,30.17,ESE,105,0.0,12.0,49,0.00,,---,0.00,VWS V13.01,2013-03-08 23:53:00,
2013-03-08 17:58:00,56.3,37.4,30.17,ESE,115,4.0,12.0,49,0.00,,---,0.00,VWS V13.01,2013-03-08 23:58:00,
2013-03-08 18:03:00,56.2,37.3,30.17,ENE,59,3.0,12.0,49,0.00,,---,0.00,VWS V13.01,2013-03-09 00:03:00,
2013-03-08 18:08:00,56.0,37.6,30.17,ENE,66,6.0,9.0,50,0.00,,---,0.00,VWS V13.01,2013-03-09 00:08:00,
2013-03-08 18:13:00,55.8,37.5,30.17,ESE,121,5.0,10.0,50,0.00,,---,0.00,VWS V13.01,2013-03-09 00:13:00,
2013-03-08 18:18:00,55.7,37.4,30.17,ENE,78,2.0,10.0,50,0.00,,---,0.00,VWS V13.01,2013-03-09 00:18:00,
2013-03-08 18:23:00,55.6,37.3,30.17,South,185,2.0,10.0,50,0.00,,---,0.00,VWS V13.01,2013-03-09 00:23:00,
2013-03-08 18:28:00,55.6,37.3,30.17,SE,129,0.0,10.0,50,0.00,,---,0.00,VWS V13.01,2013-03-09 00:28:00,
2013-03-08 18:33:00,55.5,37.2,30.17,ESE,111,4.0,12.0,50,0.00,,---,0.00,VWS V13.01,2013-03-09 00:33:00,
2013-03-08 18:38:00,55.5,37.2,30.18,ESE,121,3.0,10.0,50,0.00,,---,0.00,VWS V13.01,2013-03-09 00:38:00,
2013-03-08 18:43:00,55.4,37.6,30.18,ESE,110,1.0,12.0,51,0.00,,---,0.00,VWS V13.01,2013-03-09 00:43:00,
2013-03-08 18:48:00,55.3,37.5,30.18,SE,144,2.0,12.0,51,0.00,,---,0.00,VWS V13.01,2013-03-09 00:48:00,
2013-03-08 18:53:00,55.2,37.4,30.18,NE,46,3.0,12.0,51,0.00,,---,0.00,VWS V13.01,2013-03-09 00:53:00,
2013-03-08 18:58:00,55.1,37.8,30.18,SE,140,11.0,14.0,52,0.00,,---,0.00,VWS V13.01,2013-03-09 00:58:00,
2013-03-08 19:03:00,55.1,37.8,30.18,SE,124,2.0,14.0,52,0.00,,---,0.00,VWS V13.01,2013-03-09 01:03:00,
2013-03-08 19:08:00,55.1,38.3,30.19,SSE,151,5.0,8.0,53,0.00,,---,0.00,VWS V13.01,2013-03-09 01:08:00,
2013-03-08 19:13:00,55.0,37.7,30.19,East,98,1.0,12.0,52,0.00,,---,0.00,VWS V13.01,2013-03-09 01:13:00,
2013-03-08 19:18:00,54.9,38.1,30.19,SE,144,2.0,12.0,53,0.00,,---,0.00,VWS V13.01,2013-03-09 01:18:00,
2013-03-08 19:24:00,54.8,38.0,30.18,ESE,113,0.0,12.0,53,0.00,,---,0.00,VWS V13.01,2013-03-09 01:24:00,
2013-03-08 19:29:00,54.7,38.4,30.18,SSE,148,2.0,12.0,54,0.00,,---,0.00,VWS V13.01,2013-03-09 01:29:00,
2013-03-08 19:34:00,54.6,38.3,30.19,ESE,110,0.0,12.0,54,0.00,,---,0.00,VWS V13.01,2013-03-09 01:34:00,
2013-03-08 19:39:00,54.5,38.2,30.19,SSW,203,2.0,9.0,54,0.00,,---,0.00,VWS V13.01,2013-03-09 01:39:00,
2013-03-08 19:44:00,54.4,38.1,30.19,South,169,3.0,13.0,54,0.00,,---,0.00,VWS V13.01,2013-03-09 01:44:00,
2013-03-08 19:49:00,54.3,38.5,30.19,ENE,74,4.0,13.0,55,0.00,,---,0.00,VWS V13.01,2013-03-09 01:49:00,
2013-03-08 19:54:00,54.3,38.5,30.18,SSE,162,2.0,13.0,55,0.00,,---,0.00,VWS V13.01,2013-03-09 01:54:00,
2013-03-08 19:59:00,54.2,38.4,30.18,SSE,161,1.0,14.0,55,0.00,,---,0.00,VWS V13.01,2013-03-09 01:59:00,
2013-03-08 20:04:00,54.2,38.4,30.18,ESE,116,2.0,18.0,55,0.00,,---,0.00,VWS V13.01,2013-03-09 02:04:00,
2013-03-08 20:09:00,54.1,38.3,30.17,ESE,114,3.0,14.0,55,0.00,,---,0.00,VWS V13.01,2013-03-09 02:09:00,
2013-03-08 20:14:00,54.0,38.7,30.17,ESE,119,5.0,14.0,56,0.00,,---,0.00,VWS V13.01,2013-03-09 02:14:00,
2013-03-08 20:19:00,53.9,38.6,30.18,South,171,3.0,15.0,56,0.00,,---,0.00,VWS V13.01,2013-03-09 02:19:00,
2013-03-08 20:24:00,53.8,38.5,30.18,ENE,57,0.0,15.0,56,0.00,,---,0.00,VWS V13.01,2013-03-09 02:24:00,
2013-03-08 20:29:00,53.8,38.0,30.18,ESE,102,7.0,15.0,55,0.00,,---,0.00,VWS V13.01,2013-03-09 02:29:00,
2013-03-08 20:34:00,53.7,38.4,30.19,SSE,157,9.0,15.0,56,0.00,,---,0.00,VWS V13.01,2013-03-09 02:34:00,
2013-03-08 20:39:00,53.6,38.3,30.19,SE,133,1.0,14.0,56,0.00,,---,0.00,VWS V13.01,2013-03-09 02:39:00,
2013-03-08 20:44:00,53.6,38.3,30.19,ESE,123,1.0,14.0,56,0.00,,---,0.00,VWS V13.01,2013-03-09 02:44:00,
2013-03-08 20:49:00,53.5,38.2,30.19,SE,130,0.0,14.0,56,0.00,,---,0.00,VWS V13.01,2013-03-09 02:49:00,
2013-03-08 20:54:00,53.5,38.2,30.19,ESE,116,3.0,14.0,56,0.00,,---,0.00,VWS V13.01,2013-03-09 02:54:00,
2013-03-08 20:59:00,53.4,38.1,30.18,ENE,59,4.0,14.0,56,0.00,,---,0.00,VWS V13.01,2013-03-09 02:59:00,
2013-03-08 21:05:00,53.3,38.0,30.18,SE,136,3.0,14.0,56,0.00,,---,0.00,VWS V13.01,2013-03-09 03:05:00,
2013-03-08 21:10:00,53.2,38.4,30.18,ENE,77,0.0,9.0,57,0.00,,---,0.00,VWS V13.01,2013-03-09 03:10:00,
2013-03-08 21:15:00,53.2,38.4,30.18,East,99,4.0,11.0,57,0.00,,---,0.00,VWS V13.01,2013-03-09 03:15:00,
2013-03-08 21:20:00,53.1,38.7,30.18,SW,214,4.0,14.0,58,0.00,,---,0.00,VWS V13.01,2013-03-09 03:20:00,
2013-03-08 21:25:00,53.0,39.1,30.18,SE,136,1.0,14.0,59,0.00,,---,0.00,VWS V13.01,2013-03-09 03:25:00,
2013-03-08 21:30:00,52.9,39.0,30.18,SE,139,9.0,14.0,59,0.00,,---,0.00,VWS V13.01,2013-03-09 03:30:00,
2013-03-08 21:35:00,52.7,39.2,30.18,SE,137,0.0,14.0,60,0.00,,---,0.00,VWS V13.01,2013-03-09 03:35:00,
2013-03-08 21:40:00,52.5,39.5,30.18,East,91,1.0,9.0,61,0.00,,---,0.00,VWS V13.01,2013-03-09 03:40:00,
2013-03-08 21:45:00,52.2,40.0,30.18,ESE,110,7.0,9.0,63,0.00,,---,0.00,VWS V13.01,2013-03-09 03:45:00,
2013-03-08 21:50:00,52.0,39.8,30.18,ENE,63,0.0,11.0,63,0.00,,---,0.00,VWS V13.01,2013-03-09 03:50:00,
2013-03-08 21:55:00,51.8,40.0,30.18,ESE,123,8.0,11.0,64,0.00,,---,0.00,VWS V13.01,2013-03-09 03:55:00,
2013-03-08 22:00:00,51.5,39.7,30.17,ESE,106,4.0,11.0,64,0.00,,---,0.00,VWS V13.01,2013-03-09 04:00:00,
2013-03-08 22:05:00,51.4,40.0,30.17,East,90,1.0,11.0,65,0.00,,---,0.00,VWS V13.01,2013-03-09 04:05:00,
2013-03-08 22:10:00,51.2,39.8,30.17,ESE,103,4.0,7.0,65,0.00,,---,0.00,VWS V13.01,2013-03-09 04:10:00,
2013-03-08 22:15:00,51.0,40.1,30.16,SSE,159,3.0,13.0,66,0.00,,---,0.00,VWS V13.01,2013-03-09 04:15:00,
2013-03-08 22:20:00,50.9,40.0,30.16,NE,53,3.0,13.0,66,0.00,,---,0.00,VWS V13.01,2013-03-09 04:20:00,
2013-03-08 22:25:00,50.8,39.9,30.16,SE,129,8.0,13.0,66,0.00,,---,0.00,VWS V13.01,2013-03-09 04:25:00,
2013-03-08 22:30:00,50.7,39.8,30.16,ESE,115,0.0,13.0,66,0.00,,---,0.00,VWS V13.01,2013-03-09 04:30:00,
2013-03-08 22:35:00,50.6,40.1,30.16,East,100,2.0,13.0,67,0.00,,---,0.00,VWS V13.01,2013-03-09 04:35:00,
2013-03-08 22:40:00,50.6,39.7,30.16,ESE,105,1.0,10.0,66,0.00,,---,0.00,VWS V13.01,2013-03-09 04:40:00,
2013-03-08 22:45:00,50.6,40.1,30.16,SSE,148,4.0,10.0,67,0.00,,---,0.00,VWS V13.01,2013-03-09 04:45:00,
2013-03-08 22:50:00,50.6,39.7,30.16,ESE,110,5.0,10.0,66,0.00,,---,0.00,VWS V13.01,2013-03-09 04:50:00,
2013-03-08 22:55:00,50.6,39.7,30.16,South,180,3.0,13.0,66,0.00,,---,0.00,VWS V13.01,2013-03-09 04:55:00,
2013-03-08 23:00:00,50.5,39.6,30.16,ESE,117,6.0,13.0,66,0.00,,---,0.00,VWS V13.01,2013-03-09 05:00:00,
2013-03-08 23:01:00,50.5,39.6,30.16,South,180,2.0,13.0,66,0.00,,---,0.00,VWS V13.01,2013-03-09 05:01:00,
2013-03-08 23:06:00,50.5,40.0,30.16,SSE,148,6.0,13.0,67,0.00,,---,0.00,VWS V13.01,2013-03-09 05:06:00,
2013-03-08 23:11:00,50.5,40.0,30.15,ESE,111,3.0,10.0,67,0.00,,---,0.00,VWS V13.01,2013-03-09 05:11:00,
2013-03-08 23:16:00,50.5,40.0,30.15,East,99,4.0,10.0,67,0.00,,---,0.00,VWS V13.01,2013-03-09 05:16:00,
2013-03-08 23:21:00,50.4,39.9,30.15,ESE,111,4.0,11.0,67,0.00,,---,0.00,VWS V13.01,2013-03-09 05:21:00,
2013-03-08 23:26:00,50.4,39.9,30.15,ENE,78,5.0,11.0,67,0.00,,---,0.00,VWS V13.01,2013-03-09 05:26:00,
2013-03-08 23:31:00,50.3,39.8,30.15,East,101,2.0,11.0,67,0.00,,---,0.00,VWS V13.01,2013-03-09 05:31:00,
2013-03-08 23:36:00,50.3,40.2,30.15,ESE,122,3.0,11.0,68,0.00,,---,0.00,VWS V13.01,2013-03-09 05:36:00,
2013-03-08 23:41:00,50.3,40.2,30.14,ESE,107,0.0,5.0,68,0.00,,---,0.00,VWS V13.01,2013-03-09 05:41:00,
2013-03-08 23:46:00,50.3,40.2,30.14,ESE,109,4.0,6.0,68,0.00,,---,0.00,VWS V13.01,2013-03-09 05:46:00,
2013-03-08 23:50:00,50.2,40.1,30.14,ESE,105,0.0,7.0,68,0.00,,---,0.00,VWS V13.01,2013-03-09 05:50:00,
2013-03-08 23:55:00,50.2,40.1,30.14,ESE,111,1.0,8.0,68,0.00,,---,0.00,VWS V13.01,2013-03-09 05:55:00,